This is the latest recevied weather packets stored in our database for station/object DJ2RF. If no packets are shown the sender has not sent any weather packets the latest 10 day(s).
| Time | Temp. | Humidity | Pressure | Rain* | Wind** | Luminosity | Snow |
|---|---|---|---|---|---|---|---|
| 1778220339 | 7.22° C | 88% | 1018.6 hPa | 0 mm | - | - | - |
| 1778219789 | 7.22° C | 88% | 1018.6 hPa | 0 mm | - | - | - |
| 1778219212 | 6.67° C | 88% | 1018.5 hPa | 0 mm | - | - | - |
| 1778218653 | 6.67° C | 88% | 1018.5 hPa | 0 mm | - | - | - |
| 1778218056 | 6.11° C | 89% | 1018.3 hPa | 0 mm | - | - | - |
| 1778217471 | 6.11° C | 88% | 1018.3 hPa | 0 mm | - | - | - |
| 1778216966 | 5.56° C | 88% | 1018.1 hPa | 0 mm | - | - | - |
| 1778216475 | 5.56° C | 88% | 1018.2 hPa | 0 mm | - | - | - |
| 1778215906 | 5.56° C | 88% | 1018.1 hPa | 0 mm | - | - | - |
| 1778215346 | 5.56° C | 87% | 1017.9 hPa | 0 mm | - | - | - |
| 1778214864 | 5° C | 87% | 1018 hPa | 0 mm | - | - | - |
| 1778214289 | 5° C | 88% | 1018 hPa | 0 mm | - | - | - |
| 1778213711 | 5° C | 88% | 1018 hPa | 0 mm | - | - | - |
| 1778213202 | 5° C | 88% | 1018.1 hPa | 0 mm | - | - | - |
| 1778212617 | 5.56° C | 88% | 1018.1 hPa | 0 mm | - | - | - |
| 1778212078 | 5.56° C | 89% | 1017.8 hPa | 0 mm | - | - | - |
| 1778211537 | 5.56° C | 88% | 1017.7 hPa | 0 mm | - | - | - |
| 1778211042 | 5.56° C | 88% | 1017.7 hPa | 0 mm | - | - | - |
| 1778210500 | 5.56° C | 88% | 1017.9 hPa | 0 mm | - | - | - |
| 1778209989 | 6.11° C | 87% | 1017.8 hPa | 0 mm | - | - | - |
| 1778209492 | 5.56° C | 87% | 1017.7 hPa | 0 mm | - | - | - |
| 1778208990 | 6.11° C | 87% | 1017.8 hPa | 0 mm | - | - | - |
| 1778208437 | 6.11° C | 87% | 1017.8 hPa | 0 mm | - | - | - |
| 1778207941 | 6.11° C | 87% | 1017.8 hPa | 0 mm | - | - | - |
| 1778207371 | 6.11° C | 88% | 1017.8 hPa | 0 mm | - | - | - |
* Rain latest hour (hover to see other rain measurements)
** Current wind speed in m/s (hover to see current wind gust speed)